owner,sensor,date,latitude,longitude,vertical_datum,mass_concentration_of_oxygen_in_sea_water,qcFlag 
SCCF RECON,ioos:station:SCCF:11:1,2011-05-01T00:00:00Z,26.4679,-82.0631,1.27,6.89,1111122 
SCCF RECON,ioos:station:SCCF:11:1,2011-05-01T01:00:00Z,26.4679,-82.0631,1.38,6.79,1111122 
SCCF RECON,ioos:station:SCCF:11:1,2011-05-01T02:00:00Z,26.4679,-82.0631,1.53,6.56,1111122 
SCCF RECON,ioos:station:SCCF:11:1,2011-05-01T03:00:00Z,26.4679,-82.0631,1.63,6.47,1111122 
SCCF RECON,ioos:station:SCCF:11:1,2011-05-01T04:00:00Z,26.4679,-82.0631,1.71,6.4,1111122 
SCCF RECON,ioos:station:SCCF:11:1,2011-05-01T05:00:00Z,26.4679,-82.0631,1.76,6.27,1111122 
SCCF RECON,ioos:station:SCCF:11:1,2011-05-01T06:00:00Z,26.4679,-82.0631,1.74,6.02,1111122 
SCCF RECON,ioos:station:SCCF:11:1,2011-05-01T07:00:00Z,26.4679,-82.0631,1.639,6.19,1111122 
SCCF RECON,ioos:station:SCCF:11:1,2011-05-01T08:00:00Z,26.4679,-82.0631,1.532,5.91,1111122 
SCCF RECON,ioos:station:SCCF:11:1,2011-05-01T09:00:00Z,26.4679,-82.0631,1.5,5.65,1111122 
SCCF RECON,ioos:station:SCCF:11:1,2011-05-01T10:00:00Z,26.4679,-82.0631,1.43,5.58,1111122 
SCCF RECON,ioos:station:SCCF:11:1,2011-05-01T11:00:00Z,26.4679,-82.0631,1.41,5.36,1111122 
SCCF RECON,ioos:station:SCCF:11:1,2011-05-01T12:00:00Z,26.4679,-82.0631,1.489,5.3,1111122 
SCCF RECON,ioos:station:SCCF:11:1,2011-05-01T13:00:00Z,26.4679,-82.0631,1.64,5.82,1111122 
SCCF RECON,ioos:station:SCCF:11:1,2011-05-01T14:00:00Z,26.4679,-82.0631,1.779,6.24,1111122 
SCCF RECON,ioos:station:SCCF:11:1,2011-05-01T15:00:00Z,26.4679,-82.0631,1.86,6.44,1111122 
SCCF RECON,ioos:station:SCCF:11:1,2011-05-01T16:00:00Z,26.4679,-82.0631,1.94,6.69,1111122 
SCCF RECON,ioos:station:SCCF:11:1,2011-05-01T17:00:00Z,26.4679,-82.0631,1.957,6.37,1111122 
SCCF RECON,ioos:station:SCCF:11:1,2011-05-01T18:00:00Z,26.4679,-82.0631,1.83,6.43,1111122 
SCCF RECON,ioos:station:SCCF:11:1,2011-05-01T19:00:00Z,26.4679,-82.0631,1.687,7.28,1111122 
SCCF RECON,ioos:station:SCCF:11:1,2011-05-01T20:00:00Z,26.4679,-82.0631,1.56,7.42,1111122 
SCCF RECON,ioos:station:SCCF:11:1,2011-05-01T21:00:00Z,26.4679,-82.0631,1.46,7.81,1111122 
SCCF RECON,ioos:station:SCCF:11:1,2011-05-01T22:00:00Z,26.4679,-82.0631,1.378,8.09,1111122 
SCCF RECON,ioos:station:SCCF:11:1,2011-05-01T23:00:00Z,26.4679,-82.0631,1.3,8.11,1111122 
SCCF RECON,ioos:station:SCCF:11:1,2011-05-02T00:00:00Z,26.4679,-82.0631,1.27,7.94,1111122 
SCCF RECON,ioos:station:SCCF:11:1,2011-05-02T01:00:00Z,26.4679,-82.0631,1.36,7.36,1111122 
SCCF RECON,ioos:station:SCCF:11:1,2011-05-02T02:00:00Z,26.4679,-82.0631,1.508,7.33,1111122 
SCCF RECON,ioos:station:SCCF:11:1,2011-05-02T03:00:00Z,26.4679,-82.0631,1.649,6.86,1111122 
SCCF RECON,ioos:station:SCCF:11:1,2011-05-02T04:00:00Z,26.4679,-82.0631,1.79,6.43,1111122 
SCCF RECON,ioos:station:SCCF:11:1,2011-05-02T05:00:00Z,26.4679,-82.0631,1.848,6.5,1111122 
SCCF RECON,ioos:station:SCCF:11:1,2011-05-02T06:00:00Z,26.4679,-82.0631,1.81,6.59,1111122 
SCCF RECON,ioos:station:SCCF:11:1,2011-05-02T07:00:00Z,26.4679,-82.0631,1.742,6.5,1111122 
SCCF RECON,ioos:station:SCCF:11:1,2011-05-02T08:00:00Z,26.4679,-82.0631,1.664,6.37,1111122 
SCCF RECON,ioos:station:SCCF:11:1,2011-05-02T09:00:00Z,26.4679,-82.0631,1.58,6.22,1111122 
SCCF RECON,ioos:station:SCCF:11:1,2011-05-02T10:00:00Z,26.4679,-82.0631,1.518,5.88,1111122 
SCCF RECON,ioos:station:SCCF:11:1,2011-05-02T11:00:00Z,26.4679,-82.0631,1.501,5.55,1111122 
SCCF RECON,ioos:station:SCCF:11:1,2011-05-02T12:00:00Z,26.4679,-82.0631,1.577,5.73,1111122 
SCCF RECON,ioos:station:SCCF:11:1,2011-05-02T13:00:00Z,26.4679,-82.0631,1.72,5.85,1111122 
SCCF RECON,ioos:station:SCCF:11:1,2011-05-02T14:00:00Z,26.4679,-82.0631,1.854,6.38,1111122 
SCCF RECON,ioos:station:SCCF:11:1,2011-05-02T15:00:00Z,26.4679,-82.0631,1.957,6.59,1111122 
SCCF RECON,ioos:station:SCCF:11:1,2011-05-02T16:00:00Z,26.4679,-82.0631,2.011,6.66,1111122 
SCCF RECON,ioos:station:SCCF:11:1,2011-05-02T17:00:00Z,26.4679,-82.0631,2.011,6.42,1111122 
SCCF RECON,ioos:station:SCCF:11:1,2011-05-02T18:00:00Z,26.4679,-82.0631,1.96,6.67,1111122 
SCCF RECON,ioos:station:SCCF:11:1,2011-05-02T19:00:00Z,26.4679,-82.0631,1.83,7.49,1111122 
SCCF RECON,ioos:station:SCCF:11:1,2011-05-02T20:00:00Z,26.4679,-82.0631,1.68,7.95,1111122 
SCCF RECON,ioos:station:SCCF:11:1,2011-05-02T21:00:00Z,26.4679,-82.0631,1.54,8.0,1111122 
SCCF RECON,ioos:station:SCCF:11:1,2011-05-02T22:00:00Z,26.4679,-82.0631,1.43,8.14,1111122 
SCCF RECON,ioos:station:SCCF:11:1,2011-05-02T23:00:00Z,26.4679,-82.0631,1.314,7.98,1111122 
SCCF RECON,ioos:station:SCCF:11:1,2011-05-03T00:00:00Z,26.4679,-82.0631,1.24,7.72,1111122 
SCCF RECON,ioos:station:SCCF:11:1,2011-05-03T01:00:00Z,26.4679,-82.0631,1.26,7.41,1111122 
SCCF RECON,ioos:station:SCCF:11:1,2011-05-03T02:00:00Z,26.4679,-82.0631,1.385,7.24,1111122 
SCCF RECON,ioos:station:SCCF:11:1,2011-05-03T03:00:00Z,26.4679,-82.0631,1.522,6.84,1111122 
SCCF RECON,ioos:station:SCCF:11:1,2011-05-03T04:00:00Z,26.4679,-82.0631,1.651,6.54,1111122 
SCCF RECON,ioos:station:SCCF:11:1,2011-05-03T05:00:00Z,26.4679,-82.0631,1.711,6.53,1111122 
SCCF RECON,ioos:station:SCCF:11:1,2011-05-03T06:00:00Z,26.4679,-82.0631,1.719,6.65,1111122 
SCCF RECON,ioos:station:SCCF:11:1,2011-05-03T07:00:00Z,26.4679,-82.0631,1.72,6.34,1111122 
SCCF RECON,ioos:station:SCCF:11:1,2011-05-03T08:00:00Z,26.4679,-82.0631,1.69,6.25,1111122 
SCCF RECON,ioos:station:SCCF:11:1,2011-05-03T09:00:00Z,26.4679,-82.0631,1.595,6.43,1111122 
SCCF RECON,ioos:station:SCCF:11:1,2011-05-03T10:00:00Z,26.4679,-82.0631,1.526,5.96,1111122 
SCCF RECON,ioos:station:SCCF:11:1,2011-05-03T11:00:00Z,26.4679,-82.0631,1.542,5.63,1111122 
SCCF RECON,ioos:station:SCCF:11:1,2011-05-03T12:00:00Z,26.4679,-82.0631,1.623,5.65,1111122 
SCCF RECON,ioos:station:SCCF:11:1,2011-05-03T13:00:00Z,26.4679,-82.0631,1.707,5.77,1111122 
SCCF RECON,ioos:station:SCCF:11:1,2011-05-03T14:00:00Z,26.4679,-82.0631,1.8,6.09,1111122 
SCCF RECON,ioos:station:SCCF:11:1,2011-05-03T15:00:00Z,26.4679,-82.0631,1.92,6.43,1111122 
SCCF RECON,ioos:station:SCCF:11:1,2011-05-03T16:00:00Z,26.4679,-82.0631,2.01,6.59,1111122 
SCCF RECON,ioos:station:SCCF:11:1,2011-05-03T17:00:00Z,26.4679,-82.0631,2.05,6.34,1111122 
SCCF RECON,ioos:station:SCCF:11:1,2011-05-03T18:00:00Z,26.4679,-82.0631,2.04,7.12,1111122 
SCCF RECON,ioos:station:SCCF:11:1,2011-05-03T19:00:00Z,26.4679,-82.0631,1.956,7.88,1111122 
SCCF RECON,ioos:station:SCCF:11:1,2011-05-03T20:00:00Z,26.4679,-82.0631,1.8,7.77,1111122 
SCCF RECON,ioos:station:SCCF:11:1,2011-05-03T21:00:00Z,26.4679,-82.0631,1.65,7.83,1111122 
SCCF RECON,ioos:station:SCCF:11:1,2011-05-03T22:00:00Z,26.4679,-82.0631,1.519,7.84,1111122 
SCCF RECON,ioos:station:SCCF:11:1,2011-05-03T23:00:00Z,26.4679,-82.0631,1.39,7.83,1111122 
SCCF RECON,ioos:station:SCCF:11:1,2011-05-04T00:00:00Z,26.4679,-82.0631,1.3,7.52,1111122 
SCCF RECON,ioos:station:SCCF:11:1,2011-05-04T01:00:00Z,26.4679,-82.0631,1.26,7.23,1111122 
SCCF RECON,ioos:station:SCCF:11:1,2011-05-04T02:00:00Z,26.4679,-82.0631,1.32,7.24,1111122 
SCCF RECON,ioos:station:SCCF:11:1,2011-05-04T03:00:00Z,26.4679,-82.0631,1.476,6.89,1111122 
SCCF RECON,ioos:station:SCCF:11:1,2011-05-04T04:00:00Z,26.4679,-82.0631,1.631,6.86,1111122 
SCCF RECON,ioos:station:SCCF:11:1,2011-05-04T05:00:00Z,26.4679,-82.0631,1.77,6.58,1111122 
SCCF RECON,ioos:station:SCCF:11:1,2011-05-04T06:00:00Z,26.4679,-82.0631,1.87,6.4,1111122 
SCCF RECON,ioos:station:SCCF:11:1,2011-05-04T07:00:00Z,26.4679,-82.0631,1.9,6.67,1111122 
SCCF RECON,ioos:station:SCCF:11:1,2011-05-04T08:00:00Z,26.4679,-82.0631,1.84,6.6,1111122 
SCCF RECON,ioos:station:SCCF:11:1,2011-05-04T09:00:00Z,26.4679,-82.0631,1.76,6.33,1111122 
SCCF RECON,ioos:station:SCCF:11:1,2011-05-04T10:00:00Z,26.4679,-82.0631,1.689,6.15,1111122 
SCCF RECON,ioos:station:SCCF:11:1,2011-05-04T11:00:00Z,26.4679,-82.0631,1.66,5.64,1111122 
SCCF RECON,ioos:station:SCCF:11:1,2011-05-04T12:00:00Z,26.4679,-82.0631,1.64,5.66,1111122 
SCCF RECON,ioos:station:SCCF:11:1,2011-05-04T13:00:00Z,26.4679,-82.0631,1.663,5.76,1111122 
SCCF RECON,ioos:station:SCCF:11:1,2011-05-04T14:00:00Z,26.4679,-82.0631,1.774,5.37,1111122 
SCCF RECON,ioos:station:SCCF:11:1,2011-05-04T15:00:00Z,26.4679,-82.0631,1.9,6.14,1111122 
SCCF RECON,ioos:station:SCCF:11:1,2011-05-04T16:00:00Z,26.4679,-82.0631,2.001,5.97,1111122 
SCCF RECON,ioos:station:SCCF:11:1,2011-05-04T17:00:00Z,26.4679,-82.0631,2.04,6.11,1111122 
SCCF RECON,ioos:station:SCCF:11:1,2011-05-04T18:00:00Z,26.4679,-82.0631,2.04,6.54,1111122 
SCCF RECON,ioos:station:SCCF:11:1,2011-05-04T19:00:00Z,26.4679,-82.0631,1.971,7.36,1111122 
SCCF RECON,ioos:station:SCCF:11:1,2011-05-04T20:00:00Z,26.4679,-82.0631,1.856,7.64,1111122 
SCCF RECON,ioos:station:SCCF:11:1,2011-05-04T21:00:00Z,26.4679,-82.0631,1.71,7.56,1111122 
SCCF RECON,ioos:station:SCCF:11:1,2011-05-04T22:00:00Z,26.4679,-82.0631,1.565,7.4,1111122 
SCCF RECON,ioos:station:SCCF:11:1,2011-05-04T23:00:00Z,26.4679,-82.0631,1.43,7.31,1111122 
SCCF RECON,ioos:station:SCCF:11:1,2011-05-05T00:00:00Z,26.4679,-82.0631,1.299,7.01,1111122 
SCCF RECON,ioos:station:SCCF:11:1,2011-05-05T01:00:00Z,26.4679,-82.0631,1.2,6.49,1111122 
SCCF RECON,ioos:station:SCCF:11:1,2011-05-05T02:00:00Z,26.4679,-82.0631,1.17,6.57,1111122 
SCCF RECON,ioos:station:SCCF:11:1,2011-05-05T03:00:00Z,26.4679,-82.0631,1.26,5.84,1111122 
SCCF RECON,ioos:station:SCCF:11:1,2011-05-05T04:00:00Z,26.4679,-82.0631,1.402,5.97,1111122 
SCCF RECON,ioos:station:SCCF:11:1,2011-05-05T05:00:00Z,26.4679,-82.0631,1.548,6.06,1111122 
SCCF RECON,ioos:station:SCCF:11:1,2011-05-05T06:00:00Z,26.4679,-82.0631,1.67,5.94,1111122 
SCCF RECON,ioos:station:SCCF:11:1,2011-05-05T07:00:00Z,26.4679,-82.0631,1.743,5.87,1111122 
SCCF RECON,ioos:station:SCCF:11:1,2011-05-05T08:00:00Z,26.4679,-82.0631,1.77,6.06,1111122 
SCCF RECON,ioos:station:SCCF:11:1,2011-05-05T09:00:00Z,26.4679,-82.0631,1.702,5.98,1111122 
SCCF RECON,ioos:station:SCCF:11:1,2011-05-05T10:00:00Z,26.4679,-82.0631,1.631,5.91,1111122 
SCCF RECON,ioos:station:SCCF:11:1,2011-05-05T11:00:00Z,26.4679,-82.0631,1.577,5.63,1111122 
SCCF RECON,ioos:station:SCCF:11:1,2011-05-05T12:00:00Z,26.4679,-82.0631,1.549,5.48,1111122 
SCCF RECON,ioos:station:SCCF:11:1,2011-05-05T13:00:00Z,26.4679,-82.0631,1.54,5.42,1111122 
SCCF RECON,ioos:station:SCCF:11:1,2011-05-05T14:00:00Z,26.4679,-82.0631,1.602,5.58,1111122 
SCCF RECON,ioos:station:SCCF:11:1,2011-05-05T15:00:00Z,26.4679,-82.0631,1.711,6.21,1111122 
SCCF RECON,ioos:station:SCCF:11:1,2011-05-05T16:00:00Z,26.4679,-82.0631,1.839,6.4,1111122 
SCCF RECON,ioos:station:SCCF:11:1,2011-05-05T17:00:00Z,26.4679,-82.0631,1.93,6.73,1111122 
SCCF RECON,ioos:station:SCCF:11:1,2011-05-05T18:00:00Z,26.4679,-82.0631,1.984,6.63,1111122 
SCCF RECON,ioos:station:SCCF:11:1,2011-05-05T19:00:00Z,26.4679,-82.0631,2.0,6.68,1111122 
SCCF RECON,ioos:station:SCCF:11:1,2011-05-05T20:00:00Z,26.4679,-82.0631,1.937,6.43,1111122 
SCCF RECON,ioos:station:SCCF:11:1,2011-05-05T21:00:00Z,26.4679,-82.0631,1.79,7.3,1111122 
SCCF RECON,ioos:station:SCCF:11:1,2011-05-05T22:00:00Z,26.4679,-82.0631,1.692,7.45,1111122 
SCCF RECON,ioos:station:SCCF:11:1,2011-05-05T23:00:00Z,26.4679,-82.0631,1.543,7.18,1111122 
SCCF RECON,ioos:station:SCCF:11:1,2011-05-06T00:00:00Z,26.4679,-82.0631,1.377,6.99,1111122 
SCCF RECON,ioos:station:SCCF:11:1,2011-05-06T01:00:00Z,26.4679,-82.0631,1.258,6.61,1111122 
SCCF RECON,ioos:station:SCCF:11:1,2011-05-06T02:00:00Z,26.4679,-82.0631,1.2,6.28,1111122 
SCCF RECON,ioos:station:SCCF:11:1,2011-05-06T03:00:00Z,26.4679,-82.0631,1.24,6.11,1111122 
SCCF RECON,ioos:station:SCCF:11:1,2011-05-06T04:00:00Z,26.4679,-82.0631,1.34,5.9,1111122 
SCCF RECON,ioos:station:SCCF:11:1,2011-05-06T05:00:00Z,26.4679,-82.0631,1.48,5.95,1111122 
SCCF RECON,ioos:station:SCCF:11:1,2011-05-06T06:00:00Z,26.4679,-82.0631,1.61,6.01,1111122 
SCCF RECON,ioos:station:SCCF:11:1,2011-05-06T07:00:00Z,26.4679,-82.0631,1.71,5.94,1111122 
SCCF RECON,ioos:station:SCCF:11:1,2011-05-06T08:00:00Z,26.4679,-82.0631,1.78,5.49,1111122 
SCCF RECON,ioos:station:SCCF:11:1,2011-05-06T09:00:00Z,26.4679,-82.0631,1.8,5.26,1111122 
SCCF RECON,ioos:station:SCCF:11:1,2011-05-06T10:00:00Z,26.4679,-82.0631,1.76,5.74,1111122 
SCCF RECON,ioos:station:SCCF:11:1,2011-05-06T11:00:00Z,26.4679,-82.0631,1.701,5.71,1111122 
SCCF RECON,ioos:station:SCCF:11:1,2011-05-06T12:00:00Z,26.4679,-82.0631,1.67,5.56,1111122 
SCCF RECON,ioos:station:SCCF:11:1,2011-05-06T13:00:00Z,26.4679,-82.0631,1.67,5.19,1111122 
SCCF RECON,ioos:station:SCCF:11:1,2011-05-06T14:00:00Z,26.4679,-82.0631,1.71,5.96,1111122 
SCCF RECON,ioos:station:SCCF:11:1,2011-05-06T15:00:00Z,26.4679,-82.0631,1.81,6.11,1111122 
SCCF RECON,ioos:station:SCCF:11:1,2011-05-06T16:00:00Z,26.4679,-82.0631,1.91,6.21,1111122 
SCCF RECON,ioos:station:SCCF:11:1,2011-05-06T17:00:00Z,26.4679,-82.0631,2.005,6.15,1111122 
SCCF RECON,ioos:station:SCCF:11:1,2011-05-06T18:00:00Z,26.4679,-82.0631,2.05,6.65,1111122 
SCCF RECON,ioos:station:SCCF:11:1,2011-05-06T19:00:00Z,26.4679,-82.0631,2.071,6.28,1111122 
SCCF RECON,ioos:station:SCCF:11:1,2011-05-06T20:00:00Z,26.4679,-82.0631,2.01,7.98,1111122 
SCCF RECON,ioos:station:SCCF:11:1,2011-05-06T21:00:00Z,26.4679,-82.0631,1.92,8.3,1111122 
SCCF RECON,ioos:station:SCCF:11:1,2011-05-06T22:00:00Z,26.4679,-82.0631,1.807,8.09,1111122 
SCCF RECON,ioos:station:SCCF:11:1,2011-05-06T23:00:00Z,26.4679,-82.0631,1.617,7.63,1111122 
SCCF RECON,ioos:station:SCCF:11:1,2011-05-07T00:00:00Z,26.4679,-82.0631,1.48,7.55,1111122 
SCCF RECON,ioos:station:SCCF:11:1,2011-05-07T01:00:00Z,26.4679,-82.0631,1.36,7.33,1111122 
SCCF RECON,ioos:station:SCCF:11:1,2011-05-07T02:00:00Z,26.4679,-82.0631,1.26,6.63,1111122 
SCCF RECON,ioos:station:SCCF:11:1,2011-05-07T03:00:00Z,26.4679,-82.0631,1.21,6.36,1111122 
SCCF RECON,ioos:station:SCCF:11:1,2011-05-07T04:00:00Z,26.4679,-82.0631,1.27,6.66,1111122 
SCCF RECON,ioos:station:SCCF:11:1,2011-05-07T05:00:00Z,26.4679,-82.0631,1.405,6.16,1111122 
SCCF RECON,ioos:station:SCCF:11:1,2011-05-07T06:00:00Z,26.4679,-82.0631,1.551,6.12,1111122 
SCCF RECON,ioos:station:SCCF:11:1,2011-05-07T07:00:00Z,26.4679,-82.0631,1.67,5.87,1111122 
SCCF RECON,ioos:station:SCCF:11:1,2011-05-07T08:00:00Z,26.4679,-82.0631,1.75,5.93,1111122 
SCCF RECON,ioos:station:SCCF:11:1,2011-05-07T09:00:00Z,26.4679,-82.0631,1.809,5.67,1111122 
SCCF RECON,ioos:station:SCCF:11:1,2011-05-07T10:00:00Z,26.4679,-82.0631,1.819,5.61,1111122 
SCCF RECON,ioos:station:SCCF:11:1,2011-05-07T11:00:00Z,26.4679,-82.0631,1.797,5.75,1111122 
SCCF RECON,ioos:station:SCCF:11:1,2011-05-07T12:00:00Z,26.4679,-82.0631,1.758,5.73,1111122 
SCCF RECON,ioos:station:SCCF:11:1,2011-05-07T13:00:00Z,26.4679,-82.0631,1.739,5.6,1111122 
SCCF RECON,ioos:station:SCCF:11:1,2011-05-07T14:00:00Z,26.4679,-82.0631,1.72,5.41,1111122 
SCCF RECON,ioos:station:SCCF:11:1,2011-05-07T15:00:00Z,26.4679,-82.0631,1.776,5.74,1111122 
SCCF RECON,ioos:station:SCCF:11:1,2011-05-07T16:00:00Z,26.4679,-82.0631,1.859,6.04,1111122 
SCCF RECON,ioos:station:SCCF:11:1,2011-05-07T17:00:00Z,26.4679,-82.0631,1.931,6.36,1111122 
SCCF RECON,ioos:station:SCCF:11:1,2011-05-07T18:00:00Z,26.4679,-82.0631,2.004,6.58,1111122 
SCCF RECON,ioos:station:SCCF:11:1,2011-05-07T19:00:00Z,26.4679,-82.0631,2.05,7.01,1111122 
SCCF RECON,ioos:station:SCCF:11:1,2011-05-07T20:00:00Z,26.4679,-82.0631,2.037,7.07,1111122 
SCCF RECON,ioos:station:SCCF:11:1,2011-05-07T21:00:00Z,26.4679,-82.0631,1.96,8.23,1111122 
SCCF RECON,ioos:station:SCCF:11:1,2011-05-07T22:00:00Z,26.4679,-82.0631,1.851,8.42,1111122 
SCCF RECON,ioos:station:SCCF:11:1,2011-05-07T23:00:00Z,26.4679,-82.0631,1.73,8.09,1111122 
SCCF RECON,ioos:station:SCCF:11:1,2011-05-08T00:00:00Z,26.4679,-82.0631,1.61,7.96,1111122 
SCCF RECON,ioos:station:SCCF:11:1,2011-05-08T01:00:00Z,26.4679,-82.0631,1.49,7.5,1111122 
SCCF RECON,ioos:station:SCCF:11:1,2011-05-08T02:00:00Z,26.4679,-82.0631,1.373,7.18,1111122 
SCCF RECON,ioos:station:SCCF:11:1,2011-05-08T03:00:00Z,26.4679,-82.0631,1.28,6.94,1111122 
SCCF RECON,ioos:station:SCCF:11:1,2011-05-08T04:00:00Z,26.4679,-82.0631,1.26,6.59,1111122 
SCCF RECON,ioos:station:SCCF:11:1,2011-05-08T05:00:00Z,26.4679,-82.0631,1.335,6.04,1111122 
SCCF RECON,ioos:station:SCCF:11:1,2011-05-08T06:00:00Z,26.4679,-82.0631,1.47,6.09,1111122 
SCCF RECON,ioos:station:SCCF:11:1,2011-05-08T07:00:00Z,26.4679,-82.0631,1.591,6.05,1111122 
SCCF RECON,ioos:station:SCCF:11:1,2011-05-08T08:00:00Z,26.4679,-82.0631,1.69,6.05,1111122 
SCCF RECON,ioos:station:SCCF:11:1,2011-05-08T09:00:00Z,26.4679,-82.0631,1.77,6.0,1111122 
SCCF RECON,ioos:station:SCCF:11:1,2011-05-08T10:00:00Z,26.4679,-82.0631,1.81,6.01,1111122 
SCCF RECON,ioos:station:SCCF:11:1,2011-05-08T11:00:00Z,26.4679,-82.0631,1.8,5.59,1111122 
SCCF RECON,ioos:station:SCCF:11:1,2011-05-08T12:00:00Z,26.4679,-82.0631,1.74,5.83,1111122 
SCCF RECON,ioos:station:SCCF:11:1,2011-05-08T13:00:00Z,26.4679,-82.0631,1.709,5.45,1111122 
SCCF RECON,ioos:station:SCCF:11:1,2011-05-08T14:00:00Z,26.4679,-82.0631,1.72,5.56,1111122 
SCCF RECON,ioos:station:SCCF:11:1,2011-05-08T15:00:00Z,26.4679,-82.0631,1.73,5.8,1111122 
SCCF RECON,ioos:station:SCCF:11:1,2011-05-08T16:00:00Z,26.4679,-82.0631,1.76,6.07,1111122 
SCCF RECON,ioos:station:SCCF:11:1,2011-05-08T17:00:00Z,26.4679,-82.0631,1.82,7.42,1111122 
SCCF RECON,ioos:station:SCCF:11:1,2011-05-08T18:00:00Z,26.4679,-82.0631,1.887,6.46,1111122 
SCCF RECON,ioos:station:SCCF:11:1,2011-05-08T19:00:00Z,26.4679,-82.0631,1.949,6.09,1111122 
SCCF RECON,ioos:station:SCCF:11:1,2011-05-08T20:00:00Z,26.4679,-82.0631,1.987,6.7,1111122 
SCCF RECON,ioos:station:SCCF:11:1,2011-05-08T21:00:00Z,26.4679,-82.0631,1.981,7.13,1111122 
SCCF RECON,ioos:station:SCCF:11:1,2011-05-08T22:00:00Z,26.4679,-82.0631,1.915,8.04,1111122 
SCCF RECON,ioos:station:SCCF:11:1,2011-05-08T23:00:00Z,26.4679,-82.0631,1.8,8.14,1111122 
SCCF RECON,ioos:station:SCCF:11:1,2011-05-09T00:00:00Z,26.4679,-82.0631,1.693,7.84,1111122 
SCCF RECON,ioos:station:SCCF:11:1,2011-05-09T01:00:00Z,26.4679,-82.0631,1.59,7.55,1111122 
SCCF RECON,ioos:station:SCCF:11:1,2011-05-09T02:00:00Z,26.4679,-82.0631,1.471,7.04,1111122 
SCCF RECON,ioos:station:SCCF:11:1,2011-05-09T03:00:00Z,26.4679,-82.0631,1.36,6.71,1111122 
SCCF RECON,ioos:station:SCCF:11:1,2011-05-09T04:00:00Z,26.4679,-82.0631,1.28,6.37,1111122 
SCCF RECON,ioos:station:SCCF:11:1,2011-05-09T05:00:00Z,26.4679,-82.0631,1.277,6.19,1111122 
SCCF RECON,ioos:station:SCCF:11:1,2011-05-09T06:00:00Z,26.4679,-82.0631,1.37,5.74,1111122 
SCCF RECON,ioos:station:SCCF:11:1,2011-05-09T07:00:00Z,26.4679,-82.0631,1.5,5.92,1111122 
SCCF RECON,ioos:station:SCCF:11:1,2011-05-09T08:00:00Z,26.4679,-82.0631,1.63,5.77,1111122 
SCCF RECON,ioos:station:SCCF:11:1,2011-05-09T09:00:00Z,26.4679,-82.0631,1.73,5.95,1111122 
SCCF RECON,ioos:station:SCCF:11:1,2011-05-09T10:00:00Z,26.4679,-82.0631,1.81,5.99,1111122 
SCCF RECON,ioos:station:SCCF:11:1,2011-05-09T11:00:00Z,26.4679,-82.0631,1.849,5.82,1111122 
SCCF RECON,ioos:station:SCCF:11:1,2011-05-09T12:00:00Z,26.4679,-82.0631,1.817,5.73,1111122 
SCCF RECON,ioos:station:SCCF:11:1,2011-05-09T13:00:00Z,26.4679,-82.0631,1.75,5.74,1111122 
SCCF RECON,ioos:station:SCCF:11:1,2011-05-09T14:00:00Z,26.4679,-82.0631,1.7,5.61,1111122 
SCCF RECON,ioos:station:SCCF:11:1,2011-05-09T15:00:00Z,26.4679,-82.0631,1.68,5.89,1111122 
SCCF RECON,ioos:station:SCCF:11:1,2011-05-09T16:00:00Z,26.4679,-82.0631,1.69,5.95,1111122 
SCCF RECON,ioos:station:SCCF:11:1,2011-05-09T17:00:00Z,26.4679,-82.0631,1.705,8.15,1111122 
SCCF RECON,ioos:station:SCCF:11:1,2011-05-09T18:00:00Z,26.4679,-82.0631,1.74,8.62,1111122 
SCCF RECON,ioos:station:SCCF:11:1,2011-05-09T19:00:00Z,26.4679,-82.0631,1.8,7.61,1111122 
SCCF RECON,ioos:station:SCCF:11:1,2011-05-09T20:00:00Z,26.4679,-82.0631,1.852,6.4,1111122 
SCCF RECON,ioos:station:SCCF:11:1,2011-05-09T21:00:00Z,26.4679,-82.0631,1.89,7.03,1111122 
SCCF RECON,ioos:station:SCCF:11:1,2011-05-09T22:00:00Z,26.4679,-82.0631,1.91,7.65,1111122 
SCCF RECON,ioos:station:SCCF:11:1,2011-05-09T23:00:00Z,26.4679,-82.0631,1.854,8.0,1111122 
SCCF RECON,ioos:station:SCCF:11:1,2011-05-10T00:00:00Z,26.4679,-82.0631,1.76,8.01,1111122 
SCCF RECON,ioos:station:SCCF:11:1,2011-05-10T01:00:00Z,26.4679,-82.0631,1.68,7.78,1111122 
SCCF RECON,ioos:station:SCCF:11:1,2011-05-10T02:00:00Z,26.4679,-82.0631,1.571,7.18,1111122 
SCCF RECON,ioos:station:SCCF:11:1,2011-05-10T03:00:00Z,26.4679,-82.0631,1.0,-9999.0,1111122 
SCCF RECON,ioos:station:SCCF:11:1,2011-05-10T04:00:00Z,26.4679,-82.0631,1.0,-9999.0,1111122 
SCCF RECON,ioos:station:SCCF:11:1,2011-05-10T05:00:00Z,26.4679,-82.0631,1.0,-9999.0,1111122 
SCCF RECON,ioos:station:SCCF:11:1,2011-05-10T06:00:00Z,26.4679,-82.0631,1.0,-9999.0,1111122 
SCCF RECON,ioos:station:SCCF:11:1,2011-05-10T07:00:00Z,26.4679,-82.0631,1.0,-9999.0,1111122 
SCCF RECON,ioos:station:SCCF:11:1,2011-05-10T08:00:00Z,26.4679,-82.0631,1.0,-9999.0,1111122 
SCCF RECON,ioos:station:SCCF:11:1,2011-05-10T09:00:00Z,26.4679,-82.0631,1.0,-9999.0,1111122 
SCCF RECON,ioos:station:SCCF:11:1,2011-05-10T10:00:00Z,26.4679,-82.0631,1.0,-9999.0,1111122 
SCCF RECON,ioos:station:SCCF:11:1,2011-05-10T11:00:00Z,26.4679,-82.0631,1.0,-9999.0,1111122 
SCCF RECON,ioos:station:SCCF:11:1,2011-05-10T12:00:00Z,26.4679,-82.0631,1.0,-9999.0,1111122 
SCCF RECON,ioos:station:SCCF:11:1,2011-05-10T13:00:00Z,26.4679,-82.0631,1.0,-9999.0,1111122 
SCCF RECON,ioos:station:SCCF:11:1,2011-05-10T14:00:00Z,26.4679,-82.0631,1.0,-9999.0,1111122 
SCCF RECON,ioos:station:SCCF:11:1,2011-05-10T15:00:00Z,26.4679,-82.0631,1.0,-9999.0,1111122 
SCCF RECON,ioos:station:SCCF:11:1,2011-05-10T16:00:00Z,26.4679,-82.0631,1.0,-9999.0,1111122 
SCCF RECON,ioos:station:SCCF:11:1,2011-05-10T17:00:00Z,26.4679,-82.0631,1.0,-9999.0,1111122 
SCCF RECON,ioos:station:SCCF:11:1,2011-05-10T19:00:00Z,26.4679,-82.0631,1.716,9.21,1111122 
SCCF RECON,ioos:station:SCCF:11:1,2011-05-10T20:00:00Z,26.4679,-82.0631,1.769,8.11,1111122 
SCCF RECON,ioos:station:SCCF:11:1,2011-05-10T21:00:00Z,26.4679,-82.0631,1.832,6.58,1111122 
SCCF RECON,ioos:station:SCCF:11:1,2011-05-10T22:00:00Z,26.4679,-82.0631,1.89,6.96,1111122 
SCCF RECON,ioos:station:SCCF:11:1,2011-05-10T23:00:00Z,26.4679,-82.0631,1.9,6.77,1111122 
SCCF RECON,ioos:station:SCCF:11:1,2011-05-11T00:00:00Z,26.4679,-82.0631,1.88,8.05,1111122 
SCCF RECON,ioos:station:SCCF:11:1,2011-05-11T01:00:00Z,26.4679,-82.0631,1.83,7.83,1111122 
SCCF RECON,ioos:station:SCCF:11:1,2011-05-11T02:00:00Z,26.4679,-82.0631,1.73,7.59,1111122 
SCCF RECON,ioos:station:SCCF:11:1,2011-05-11T03:00:00Z,26.4679,-82.0631,1.629,6.77,1111122 
SCCF RECON,ioos:station:SCCF:11:1,2011-05-11T04:00:00Z,26.4679,-82.0631,1.526,6.82,1111122 
SCCF RECON,ioos:station:SCCF:11:1,2011-05-11T05:00:00Z,26.4679,-82.0631,1.433,6.42,1111122 
SCCF RECON,ioos:station:SCCF:11:1,2011-05-11T06:00:00Z,26.4679,-82.0631,1.361,6.32,1111122 
SCCF RECON,ioos:station:SCCF:11:1,2011-05-11T07:00:00Z,26.4679,-82.0631,1.361,5.7,1111122 
SCCF RECON,ioos:station:SCCF:11:1,2011-05-11T08:00:00Z,26.4679,-82.0631,1.46,5.55,1111122 
SCCF RECON,ioos:station:SCCF:11:1,2011-05-11T09:00:00Z,26.4679,-82.0631,1.599,5.24,1111122 
SCCF RECON,ioos:station:SCCF:11:1,2011-05-11T10:00:00Z,26.4679,-82.0631,1.702,4.93,1111122 
SCCF RECON,ioos:station:SCCF:11:1,2011-05-11T11:00:00Z,26.4679,-82.0631,1.8,5.08,1111122 
SCCF RECON,ioos:station:SCCF:11:1,2011-05-11T12:00:00Z,26.4679,-82.0631,1.89,5.2,1111122 
SCCF RECON,ioos:station:SCCF:11:1,2011-05-11T13:00:00Z,26.4679,-82.0631,1.94,5.29,1111122 
SCCF RECON,ioos:station:SCCF:11:1,2011-05-11T14:00:00Z,26.4679,-82.0631,1.949,5.3,1111122 
SCCF RECON,ioos:station:SCCF:11:1,2011-05-11T15:00:00Z,26.4679,-82.0631,1.91,5.8,1111122 
SCCF RECON,ioos:station:SCCF:11:1,2011-05-11T16:00:00Z,26.4679,-82.0631,1.82,5.94,1111122 
SCCF RECON,ioos:station:SCCF:11:1,2011-05-11T17:00:00Z,26.4679,-82.0631,1.73,6.35,1111122 
SCCF RECON,ioos:station:SCCF:11:1,2011-05-11T18:00:00Z,26.4679,-82.0631,1.67,6.62,1111122 
SCCF RECON,ioos:station:SCCF:11:1,2011-05-11T19:00:00Z,26.4679,-82.0631,1.62,7.38,1111122 
SCCF RECON,ioos:station:SCCF:11:1,2011-05-11T20:00:00Z,26.4679,-82.0631,1.66,7.85,1111122 
SCCF RECON,ioos:station:SCCF:11:1,2011-05-11T21:00:00Z,26.4679,-82.0631,1.75,7.77,1111122 